Regional Weather Roundup
Issued by NWS

Home | Current Version | Previous Version | Text Only | Print | Product List | Glossary On
Versions: 1 2 3 4 5 6 7 8 9 10 11 12 13 14 15 16 17 18 19 20 21 22 23 24 25 26 27 28 29 30 31 32 33 34 35 36 37 38 39 40 41 42 43 44 45 46 47 48 49 50
000
ASUS46 KSEW 181310
RWRWA

WASHINGTON REGIONAL WEATHER ROUNDUP
NATIONAL WEATHER SERVICE SEATTLE WA
600 AM PDT SAT APR 18 2015

NOTE:"FAIR" INDICATES FEW OR NO CLOUDS BELOW 12,000 FEET WITH NO
SIGNIFICANT WEATHER AND/OR OBSTRUCTIONS TO VISIBILITY.

WAZ505-507>509-181400-
SEATTLE, TACOMA, EVERETT, AND VICINITY

CITY           SKY/WX    TMP DP  RH WIND       PRES   REMARKS
EVERETT        CLEAR     47  38  71 N7        30.36R
BOEING FIELD   CLEAR     50  38  63 CALM      30.36R
RENTON         CLEAR     48  43  82 N7        30.35R
SEATAC AIRPORT CLEAR     47  38  71 N10       30.35R
JBLM-MCCHORD   CLEAR     39  38  99 S2        30.34R
PUYALLUP       DRIZZLE   37  37 100 CALM      30.34R
BREMERTON      CLEAR     46  41  81 N16       30.37R
JBLM-FT LEWIS  CLEAR     37  37  99 E1        30.34R
TACOMA NARROWS CLEAR     48  40  73 N12       30.35R
$$

WAZ001-503-506-510-514-515-181400-
NORTH INTERIOR

CITY           SKY/WX    TMP DP  RH WIND       PRES   REMARKS
BELLINGHAM     CLEAR     40  38  93 CALM      30.35S
FRIDAY HARBOR  CLEAR     41  36  82 CALM      30.37S
EASTSOUND      CLEAR     48  45  87 N12       30.35F
PORT ANGELES   CLEAR     37  36  96 SE3       30.36S
NAS WHIDBEY    PTCLDY    46  38  73 N6        30.37S
ARLINGTON      CLEAR     36  30  80 N7        30.38S
BURLINGTON     CLOUDY    43  37  81 CALM      30.37S
$$

WAZ020-022-039-040-504-511-512-181400-
SOUTHWEST INTERIOR

CITY           SKY/WX    TMP DP  RH WIND       PRES   REMARKS
SHELTON        MOCLDY    35  34  96 CALM      30.33R
OLYMPIA        CLEAR     44  42  93 N6        30.34S
CHEHALIS       FAIR      41  41 100 NE6       30.33S
KELSO          CLEAR     43  37  81 CALM      30.34S
VANCOUVER      CLEAR     48  42  80 CALM      30.29R
SCAPPOOSE, OR  CLEAR     43  39  86 CALM      30.28S
PORTLAND, OR   CLEAR     48  43  82 CALM      30.29S
$$

WAZ021-516-517-181400-
WASHINGTON COAST

CITY           SKY/WX    TMP DP  RH WIND       PRES   REMARKS
FORKS          CLEAR     36  35  96 CALM      30.34R
HOQUIAM        CLEAR     39  38  96 CALM      30.35R
ASTORIA, OR    CLEAR     40  38  93 SE3       30.32S
$$

WAZ019-023-024-040-518-519-181400-
CASCADE MOUNTAINS AND COLUMBIA GORGE

CITY           SKY/WX    TMP DP  RH WIND       PRES   REMARKS
TROUTDALE, OR  CLEAR     41  39  93 CALM      30.28S
THE DALLES, OR CLEAR     47  40  76 W6        30.27R
$$

WAZ026-027-041>044-520-521-181400-
EAST SLOPES

CITY           SKY/WX    TMP DP  RH WIND       PRES   REMARKS
OMAK           CLEAR     46  23  40 N8        30.31R
WENATCHEE      CLEAR     51  33  50 W3        30.29R
ELLENSBURG     CLEAR     46  31  55 W7        30.27R
YAKIMA         CLEAR     41  28  60 W10       30.28R
$$

WAZ028-034-035-181400-
COLUMBIA BASIN

CITY           SKY/WX    TMP DP  RH WIND       PRES   REMARKS
EPHRATA        CLEAR     50  29  44 N16       30.25R
MOSES LAKE     CLEAR     48  30  49 NW5       30.26R
PASCO          CLEAR     42  33  70 E5        30.26R
HERMISTON, OR  CLEAR     34  32  92 S3        30.25R
$$

WAZ036>038-181400-
NORTHEAST WASHINGTON

CITY           SKY/WX    TMP DP  RH WIND       PRES   REMARKS
SPOKANE GEIGER MOCLDY    48  23  37 NW9       30.20R
SPOKANE FELTS  CLEAR     37  33  85 NE5       30.21R
FAIRCHILD AFB  CLEAR     47  23  39 NW8       30.21R
COEURDALENE,ID CLEAR     39  37  93 E7        30.21R
DEER PARK      CLEAR     48  22  35 N9        30.21R
$$

WAZ029>033-181400-
SOUTHEAST WASHINGTON

CITY           SKY/WX    TMP DP  RH WIND       PRES   REMARKS
PULLMAN        CLEAR     35  30  82 CALM      30.21R
LEWISTON, ID   CLEAR     43  35  73 S7        30.19R
WALLA WALLA    CLEAR     49  34  56 SE6       30.24R
PENDLETON, OR  CLEAR     39  34  81 SE7       30.24R
$$


USA.gov is the U.S. government's official web portal to all federal, state and local government web resources and services.